Location: Bennemühlen
(52.5740°N, 9.7135°E)
Time: 20:42:28
(UTC+00:00)

Tiros 1 despin weight - Pass Details

Date: 23 February 2026
Orbit: 556 x 593 km, 48.2° (Epoch: 8 March)

Event Time Altitude Azimuth Distance (km) Brightness Sun altitude
Rises 13:59:24 0° 245° (WSW) 2,747 ? 20.5°
Reaches altitude 10° 14:01:44 10° 238° (WSW) 1,847 ? 20.2°
Maximum altitude 14:05:42 41° 169° (SSE) 819 ? 19.9°
Drops below altitude 10° 14:09:39 10° 99° (E) 1,840 ? 19.5°
Sets 14:11:58 0° 92° (E) 2,734 ? 19.2°
